Theta_e
330 326 320 315 316 314 315 316 313 312 314 311 311 314 314 314 323 324 328 335 336 341 344 343 343 342 338 341 340 340 342 342 342 341 342 342 342 342 343 342 343 343 344 343 343 342 342 341 340
327 323 317 311 313 312 316 311 313 313 313 308 308 312 313 316 315 328 331 334 338 341 344 345 342 342 338 341 340 340 341 341 341 340 341 342 342 342 343 342 341 341 342 340 340 340 340 340 339
326 319 317 318 313 313 316 309 313 310 306 308 310 310 314 316 321 328 332 334 339 342 344 344 342 341 339 340 340 340 340 340 340 340 341 341 342 342 342 341 340 339 338 337 338 338 338 338 338
323 319 314 315 315 308 312 307 309 309 308 306 308 312 314 317 326 328 332 335 339 343 343 343 342 341 338 341 339 340 340 339 340 340 340 339 341 342 341 340 337 337 336 337 337 337 338 338 339
321 314 314 317 313 309 304 303 306 309 310 308 306 311 317 321 324 330 333 336 340 343 343 343 341 341 337 341 340 340 339 339 338 339 340 341 341 343 340 338 336 337 337 337 337 338 338 340 338
323 314 314 309 312 311 308 304 304 306 305 305 306 309 312 322 327 332 333 338 340 342 343 343 341 341 337 340 339 339 339 339 338 338 340 341 341 340 338 336 336 337 337 337 337 337 337 336 337
324 320 313 308 307 312 311 304 304 304 304 307 306 310 312 324 331 334 337 339 341 342 343 342 341 341 338 339 338 338 339 338 339 340 339 339 339 337 336 336 336 336 336 333 332 333 335 335 335
323 319 316 310 309 308 310 306 305 305 306 304 309 311 314 320 332 335 336 339 340 342 342 342 341 341 339 339 338 337 338 339 339 339 337 337 337 336 335 335 336 336 334 334 333 327 331 333 332
322 325 325 317 310 309 308 309 306 304 306 304 310 311 314 327 333 336 337 339 338 341 342 342 341 340 339 340 338 338 338 338 338 336 335 333 332 332 333 336 336 335 334 331 331 328 327 328 328
323 325 324 318 312 310 309 308 308 307 306 306 310 315 322 332 334 337 338 338 339 341 342 343 341 341 340 340 338 338 338 339 337 335 335 333 334 334 334 333 333 332 331 329 328 329 328 327 328
319 324 321 320 315 310 310 307 307 307 307 306 310 313 327 331 334 335 336 337 339 341 342 341 340 340 339 339 338 338 338 337 334 333 335 333 333 332 332 331 331 331 330 332 333 332 332 331 331
318 319 320 320 317 311 312 307 307 307 309 306 308 314 327 330 334 334 334 337 338 341 340 340 339 339 338 338 337 337 336 334 333 330 333 331 330 330 329 329 330 331 331 331 330 330 329 329 329
314 317 319 319 316 313 310 310 309 306 305 304 305 320 328 330 332 334 334 337 338 340 338 339 337 338 336 337 336 333 334 333 331 329 330 330 329 328 327 327 330 330 330 329 328 327 327 326 328
312 311 313 316 320 317 313 311 308 309 305 303 309 320 327 330 331 333 334 335 338 339 338 338 337 337 335 335 335 333 332 331 329 330 330 330 328 328 325 326 329 329 328 327 327 326 327 326 325
310 313 313 314 316 320 316 318 317 312 307 308 310 314 326 330 332 333 334 335 338 338 338 337 337 335 336 334 334 333 332 330 329 329 330 330 328 326 326 326 327 327 327 327 327 326 325 325 324
309 312 314 314 314 315 318 321 316 313 311 310 314 313 322 329 331 332 333 334 338 337 337 336 336 336 335 333 333 332 331 330 329 329 329 329 328 328 328 328 327 327 327 327 325 324 323 322 322
309 313 312 315 312 316 318 319 315 314 313 312 312 316 321 327 331 331 332 333 337 337 336 334 335 334 332 332 332 332 330 329 329 329 329 328 327 328 328 328 326 326 325 324 324 322 322 319 316
308 310 313 311 312 314 317 317 315 314 315 315 311 317 319 326 330 329 332 333 334 336 335 333 332 332 332 330 330 331 329 328 329 328 328 327 326 326 326 326 325 325 324 323 322 322 316 315 314
304 307 309 311 311 313 314 317 316 315 315 315 313 317 321 323 327 328 332 333 333 335 333 331 330 329 331 329 326 327 327 328 328 327 328 326 325 325 325 325 324 323 324 323 322 319 316 307 308
304 305 305 306 306 307 313 314 313 316 316 315 315 313 321 323 326 329 332 333 333 332 330 329 329 328 329 329 327 324 324 324 327 327 327 327 325 325 325 325 324 324 323 321 319 319 310 305 307
305 304 303 307 308 309 314 314 314 313 315 314 313 311 317 323 326 328 330 331 332 330 328 327 325 327 327 326 325 325 322 320 320 321 326 326 324 324 324 324 324 323 323 322 320 319 317 308 305
301 303 306 307 308 310 315 318 316 314 314 316 313 309 314 320 324 325 327 328 329 328 327 325 323 324 324 326 324 326 320 314 319 323 324 324 323 323 323 323 323 323 322 321 319 316 316 315 309
304 306 307 308 310 308 310 316 311 313 317 315 314 310 311 319 322 325 325 326 327 325 323 322 321 321 323 324 323 321 319 320 320 317 322 321 321 321 322 322 321 321 321 320 318 315 313 314 313
303 306 308 307 307 310 308 309 313 310 309 315 313 308 308 315 321 324 324 320 319 321 320 318 320 319 319 319 319 318 316 316 315 313 316 317 318 318 319 320 320 320 319 318 317 314 313 313 314
294 296 309 309 307 308 306 311 303 298 299 301 302 306 306 313 319 322 319 316 313 313 315 316 316 315 317 318 318 317 315 316 315 311 312 313 314 316 316 318 318 319 316 316 314 311 310 310 313
293 296 298 307 309 307 306 307 302 296 297 298 302 304 305 313 318 320 317 313 312 311 312 313 314 313 314 315 316 317 317 313 310 309 308 308 310 311 313 316 312 315 313 312 309 308 308 309 310
293 295 295 300 300 304 298 295 296 294 296 297 298 306 311 314 317 317 313 312 311 310 310 311 311 311 311 312 314 314 314 313 312 312 309 308 308 308 307 309 311 310 312 310 308 305 306 307 308
291 292 300 296 305 300 296 294 296 293 294 297 296 295 299 302 303 304 305 306 307 307 308 309 309 309 310 310 311 311 312 310 310 309 308 307 306 306 304 304 306 308 310 309 306 303 304 305 304
291 290 290 291 298 296 301 293 293 292 294 295 294 294 294 296 298 298 296 298 301 304 305 306 307 308 307 309 309 310 309 309 308 308 307 307 310 308 308 308 307 304 305 307 304 302 301 299 298
291 291 290 292 296 292 290 291 293 292 293 293 292 292 292 292 294 294 295 295 296 297 299 302 303 305 305 306 306 306 306 305 306 306 307 303 304 305 305 304 303 301 304 304 304 304 299 295 293
Wind_Speed
6 4 6 2 3 2 12 8 4 6 5 5 7 6 10 4 6 4 3 22 30 42 33 31 30 28 27 24 23 23 23 22 21 20 20 21 21 21 21 22 23 24 25 25 26 26 27 26 27
10 6 3 2 4 6 13 7 11 10 5 6 1 2 4 9 2 1 6 20 30 37 33 29 31 29 27 26 24 24 24 24 22 21 21 21 21 21 22 24 24 24 26 26 25 26 27 26 26
15 5 2 4 4 15 13 5 8 4 5 5 4 2 3 4 3 5 6 26 31 34 32 31 33 30 29 28 26 25 24 23 22 21 21 22 22 22 23 25 27 25 25 28 27 27 27 26 25
13 2 1 4 11 7 18 6 7 7 2 3 3 3 3 5 3 4 15 31 32 32 36 35 34 30 30 29 26 25 25 23 22 21 22 21 23 24 25 27 27 29 30 28 28 27 26 25 24
14 2 4 6 9 5 3 4 9 9 5 6 5 4 4 2 6 7 22 36 34 31 35 35 34 31 31 29 27 26 25 24 23 23 22 23 24 26 27 28 30 30 28 29 28 27 26 25 24
4 2 5 19 11 9 4 6 8 6 5 2 5 4 4 2 7 11 27 30 31 33 36 35 33 32 31 30 29 27 26 24 24 25 26 27 27 26 26 28 27 30 31 30 28 26 25 25 24
14 6 15 17 20 6 11 8 8 8 7 8 2 11 3 3 10 19 22 28 28 32 34 35 34 32 32 30 29 29 27 26 27 27 27 26 28 28 28 28 26 26 28 27 29 28 27 26 25
10 5 17 12 12 14 7 9 7 9 9 1 6 6 5 4 19 24 26 26 29 33 33 35 35 34 32 30 29 28 28 30 30 30 29 30 31 29 25 24 26 26 27 24 23 24 27 29 23
12 8 20 25 18 6 6 9 5 2 6 4 8 4 1 15 25 27 26 25 28 30 32 34 34 34 33 32 30 29 29 32 32 32 30 31 29 29 27 27 29 28 26 25 25 23 24 23 25
14 18 29 12 9 10 7 8 10 6 9 5 3 2 5 24 24 28 29 28 30 32 33 37 35 33 33 32 32 33 31 32 31 33 31 30 31 32 32 30 28 27 27 25 24 24 24 23 23
26 24 19 11 13 13 10 6 8 10 10 7 14 7 13 23 21 25 32 36 40 35 33 36 37 36 34 34 34 35 35 33 33 34 33 34 33 32 30 29 28 28 24 26 28 28 28 27 26
20 28 20 14 9 11 17 6 6 13 12 12 13 11 17 19 17 23 29 28 31 30 35 41 39 37 37 36 34 36 37 35 35 34 35 34 32 31 29 28 26 28 29 31 30 29 29 29 28
27 20 13 19 5 12 11 15 14 11 9 3 5 11 19 19 24 25 30 30 35 29 34 38 37 38 35 39 36 36 38 36 35 34 33 33 32 32 29 27 29 31 32 30 30 31 31 31 30
9 24 25 15 10 9 13 10 8 6 10 6 7 13 16 21 24 24 25 27 32 29 36 42 38 37 37 39 39 37 38 37 37 34 33 32 32 31 30 31 32 32 31 31 33 34 34 32 29
17 18 14 18 22 7 12 16 28 5 6 10 11 12 15 18 30 27 30 30 34 32 38 41 41 40 42 39 40 39 38 37 37 35 33 31 29 31 32 33 33 33 33 35 36 34 31 29 28
12 10 15 18 12 14 7 34 20 14 9 9 10 9 14 18 21 30 32 35 34 34 40 39 42 46 41 42 40 39 39 38 37 35 33 31 31 33 35 35 36 37 37 36 35 32 32 31 30
7 8 21 7 22 11 24 11 8 17 15 11 10 9 11 15 17 27 32 34 32 35 39 41 46 45 43 45 41 40 38 37 37 36 34 31 34 35 36 37 38 37 36 34 33 33 32 32 31
5 4 7 24 14 22 22 21 4 16 20 19 11 11 11 15 20 27 27 32 32 33 38 45 44 45 45 42 42 41 40 36 35 35 35 34 35 36 36 36 36 35 34 33 33 33 31 31 32
15 4 7 4 13 21 29 17 21 4 17 22 17 11 12 14 18 27 27 30 34 33 36 40 42 45 48 43 39 37 39 40 38 35 35 34 35 34 35 35 35 35 34 35 34 35 35 31 32
15 16 7 7 10 9 18 22 21 14 11 17 19 14 13 13 14 15 23 27 34 32 37 39 43 47 48 47 40 34 39 39 41 39 37 35 35 34 34 34 36 36 35 35 35 37 34 27 18
4 16 15 11 2 10 13 17 19 23 17 10 8 11 14 16 18 16 17 22 32 32 35 39 44 49 45 41 41 39 38 36 35 37 39 37 36 35 35 35 35 35 34 36 36 36 34 24 13
4 10 8 9 4 4 11 8 17 19 24 13 10 10 14 16 17 17 14 19 31 33 38 37 40 44 42 48 44 48 38 30 37 44 43 40 37 35 35 36 35 35 35 35 35 34 30 27 21
4 2 15 10 6 1 4 4 3 17 15 23 12 11 12 14 16 17 18 21 25 31 32 37 38 37 44 46 43 41 30 34 40 41 43 40 38 35 35 34 35 35 35 34 34 33 27 22 21
6 3 5 3 3 5 7 3 2 4 10 12 15 9 10 10 12 16 24 25 24 30 34 34 39 38 39 40 37 33 29 34 39 39 43 41 39 37 35 35 36 36 35 34 33 31 25 21 17
13 5 4 4 3 4 9 6 2 9 9 6 8 7 9 12 13 16 17 17 23 27 31 35 37 35 38 38 37 35 30 36 39 39 40 43 41 39 37 37 38 35 34 32 32 30 24 20 17
7 1 2 3 4 4 4 5 1 4 7 12 9 6 5 11 13 16 17 20 24 27 31 33 35 34 35 37 38 38 35 33 30 34 34 35 37 37 36 36 36 34 30 28 29 27 22 18 18
7 5 1 1 1 4 4 3 4 14 16 17 15 3 5 11 13 12 11 21 24 26 28 32 32 32 34 35 37 36 34 35 36 37 34 38 35 33 31 30 28 28 27 26 26 24 21 19 18
4 5 3 4 3 4 3 3 7 18 16 14 13 13 9 4 8 7 6 13 18 24 28 30 31 33 35 34 35 36 33 31 32 34 34 32 28 23 22 25 26 28 27 25 24 23 20 19 18
12 5 4 1 1 3 2 3 8 12 11 10 11 9 10 8 6 6 6 11 19 24 28 29 31 32 34 34 33 32 32 31 29 31 31 31 31 28 28 23 22 24 26 24 26 22 19 19 19
13 7 3 2 5 3 2 2 8 9 9 10 11 10 8 9 8 6 4 11 15 20 24 28 30 31 32 32 30 29 28 27 28 29 29 30 28 27 26 29 28 26 26 27 26 25 20 19 20
Wind_Direction
175 160 170 125 192 112 229 223 159 149 164 208 150 172 190 185 172 208 297 174 163 163 166 169 166 164 158 152 149 147 145 147 143 145 138 135 135 133 129 126 123 119 118 114 112 111 111 113 113
179 161 118 103 197 195 228 170 201 167 174 134 125 128 147 235 219 288 113 168 166 163 163 165 165 164 158 152 151 148 147 148 151 145 142 137 136 134 129 124 123 123 118 115 114 113 114 113 113
180 175 139 183 201 217 232 193 182 190 160 142 164 229 185 225 210 193 180 167 163 164 164 166 166 164 159 154 153 150 149 153 149 147 142 142 136 133 129 126 124 124 122 118 115 115 115 112 112
174 71 51 214 212 233 235 174 172 150 210 259 180 188 256 226 194 195 167 167 168 166 167 168 168 165 160 155 152 152 153 151 148 145 139 140 136 133 130 131 127 124 126 123 117 113 113 110 106
177 116 200 223 222 248 198 163 162 174 179 195 188 218 235 210 220 187 167 165 167 166 168 169 170 167 162 155 155 154 153 153 150 142 137 136 134 130 135 134 129 127 126 121 113 111 108 107 109
173 151 206 223 213 220 185 177 154 171 199 137 181 155 247 191 180 173 164 162 165 166 168 170 170 168 163 159 157 155 156 155 150 144 137 132 133 136 136 133 132 129 126 119 111 107 106 109 112
209 193 229 232 215 218 214 157 174 177 167 212 178 204 241 191 167 154 163 162 162 166 168 171 170 168 164 163 160 159 159 155 149 143 142 142 134 131 135 132 132 128 124 117 112 105 103 107 110
204 183 232 222 208 225 186 171 172 176 202 88 171 197 218 184 163 156 162 164 166 173 171 171 171 168 165 163 162 159 157 154 149 144 137 135 130 131 133 131 131 128 125 120 127 123 118 110 106
212 221 225 218 208 212 167 180 179 186 178 212 190 188 176 156 158 152 156 155 165 172 174 173 171 170 166 163 161 156 156 155 152 143 142 140 135 135 133 130 127 127 127 127 127 134 133 130 123
206 227 232 212 206 199 188 185 174 169 183 218 203 156 125 155 165 161 163 164 173 173 174 173 170 166 167 163 160 159 158 155 153 150 149 146 141 139 136 137 140 138 139 136 130 127 129 126 124
231 231 221 199 186 177 204 194 185 186 203 182 194 178 161 168 175 178 172 175 177 173 169 168 170 171 165 161 159 158 160 158 158 153 150 149 144 142 145 147 146 145 140 129 127 126 121 118 117
251 231 245 212 202 179 206 168 214 205 204 187 206 167 165 181 180 184 180 173 174 178 168 169 172 169 167 164 159 159 158 160 157 156 154 150 151 151 149 148 143 139 136 132 128 125 121 119 112
241 244 231 237 173 190 193 213 216 221 213 165 162 154 172 182 190 187 184 175 175 171 169 164 169 168 167 166 163 164 167 168 165 162 158 160 157 153 153 148 141 140 138 137 132 126 122 116 113
273 241 251 258 225 228 199 216 194 207 201 186 158 176 185 180 189 184 184 178 182 172 165 165 171 171 170 169 169 167 169 169 166 164 165 163 162 158 152 148 146 144 144 140 133 128 123 117 112
256 257 261 235 242 231 200 240 230 139 148 177 190 189 189 195 184 185 181 180 177 181 163 165 170 173 171 174 173 173 173 172 168 167 169 168 168 155 152 150 149 147 143 139 134 129 124 118 113
241 240 229 220 226 234 206 238 223 189 158 194 199 200 191 195 196 184 184 186 181 174 167 168 169 177 179 179 175 178 176 174 172 171 170 170 167 159 155 153 151 148 146 143 139 134 128 120 114
193 236 231 232 214 210 204 231 206 186 199 199 202 204 194 191 196 194 188 187 180 174 168 167 172 174 175 178 179 178 177 177 176 174 172 173 166 161 157 155 153 153 151 148 145 137 132 124 114
225 193 237 224 203 209 231 224 167 191 199 211 197 205 197 190 194 194 189 186 182 176 170 170 170 172 177 174 177 175 176 179 178 178 176 177 172 167 164 160 158 159 158 153 149 144 134 128 121
258 267 231 327 211 203 217 225 215 211 207 207 197 195 196 196 193 189 185 179 176 179 170 168 165 171 178 173 167 170 176 180 180 182 183 181 179 175 173 168 166 166 165 160 157 148 141 126 123
250 246 267 297 233 294 215 226 217 237 208 210 209 197 192 190 187 182 179 172 178 171 170 169 170 175 179 177 178 173 177 179 183 184 185 185 184 182 181 178 174 174 171 167 163 158 146 140 142
243 214 231 240 325 290 204 222 210 219 238 206 212 199 199 191 184 183 182 173 177 172 173 171 177 176 176 174 175 179 178 176 178 183 184 188 189 187 186 185 183 181 181 176 173 169 162 154 153
218 204 209 177 176 252 193 213 214 204 210 212 205 194 203 204 191 188 175 174 175 174 180 180 177 172 176 181 179 183 175 171 183 185 186 187 190 190 190 190 189 188 187 184 181 177 176 171 155
268 213 171 184 145 229 334 225 270 192 201 210 205 205 203 197 191 179 181 178 171 169 176 178 174 172 183 184 184 180 180 179 183 185 185 186 189 194 194 196 195 194 193 192 187 185 185 183 172
306 155 131 108 140 213 147 65 338 156 244 213 214 204 190 190 188 177 176 159 155 164 169 168 172 177 182 181 186 179 180 177 176 181 183 187 190 192 196 197 200 200 196 195 193 192 192 192 195
12 52 143 154 171 210 159 149 31 330 334 306 299 274 191 183 185 175 172 156 150 153 159 166 171 172 184 188 187 189 191 186 183 182 182 186 190 192 196 195 199 200 200 198 197 195 196 198 203
302 132 102 118 146 175 236 159 164 326 318 356 332 256 240 184 185 182 176 155 157 158 164 168 173 174 184 189 191 196 199 191 181 180 186 183 187 192 194 199 197 196 197 198 197 197 199 200 199
328 30 290 243 223 100 328 348 265 360 8 1 355 274 199 195 182 176 165 162 158 159 163 169 171 174 182 185 192 194 194 195 195 196 197 192 193 192 191 190 192 189 190 194 194 199 200 201 200
75 311 19 5 41 47 345 45 335 347 346 351 357 359 357 357 94 103 125 146 148 153 158 168 174 174 182 189 192 192 194 196 199 196 196 197 194 191 190 181 183 188 186 187 189 195 198 201 199
11 13 349 205 300 146 133 353 337 332 339 350 351 359 3 5 34 88 92 107 132 144 154 163 173 178 181 188 190 190 191 191 194 197 197 197 193 195 188 195 190 194 188 181 189 188 194 195 193
34 3 321 41 353 33 100 341 339 331 348 357 355 354 11 19 26 40 90 111 118 132 147 159 172 177 181 185 188 187 187 188 191 193 194 195 191 189 195 193 191 196 186 185 190 186 187 190 186